SPACEBEE-106 (48893 NORAD) Tracking and Keplerian Element Data

This shows tracking and keplerian element data for the satellite.

Feedback or suggestion? Click here.




ElementValue
Catalog48893
NameSPACEBEE-106
Epoch Orbit1387
Epoch Day268.60690092
Epoch Year2021
RAAN36.0748
Inclination97.527
Eccentricity0.0008282
Argument of Perigee304.3876
Mean Anonmoly55.6571
Mean Motion15.12325006
Decay Rate3.048E-05
L11 48893U 21059Q 21268.60690092 .00003048 00000-0 17957-3 0 9997
L22 48893 97.5270 36.0748 0008282 304.3876 55.6571 15.12325006 13876

Live tracking and technical data element details for SPACEBEE-106 (NORAD 48893). SPACEBEE-106 can be tracked NOW for your location showing map with azimuth and elevation plus other details from your city location.

Track the satellite on the map from your city or location and see movement details for azimuth, elevation, latitude, longitude, range, height, and movement on the map or in text.







IsCatalogInMostPopularTable: catalog: 48893, numindb: 15
Update: records affected: 1



GetName: 48893 SPACEBEE-106

Hit Count: updated at: Sun, 26 Sep 2021 15:31:02 GMT